Location: Fours
(44.3167°N, 6.7000°E)
Time: 02:57:06
(UTC+00:00)

CZ-2C R/B - Visible Passes

Search period start: 15 April 2021 00:00
Search period end: 25 April 2021 00:00
Orbit: 703 x 908 km, 98.1° (Epoch: 14 April)

Date Brightness Start Highest point End Pass type
(mag) Time Alt. Az. Time Alt. Az. Time Alt. Az.
16 Apr 6.2 19:10:18 10° WSW 19:11:32 11° W 19:12:46 10° WNW visible
20 Apr 6.3 19:10:47 10° W 19:11:46 11° W 19:12:45 10° WNW visible
24 Apr 6.4 19:11:14 10° W 19:12:00 10° W 19:12:45 10° WNW visible
